#timestamp,LO_Frequency,Hit,StdDev 
1561287615.6,286047004.7,N
1561287635.4,286047007.3,N
1561287655.3,286047004.7,N
1561287675.1,286047005.2,N
1561287695.8,286047005.7,N
1561287715.7,286047005.4,N
1561287735.5,286047007.3,N
1561287755.3,286047009.2,N
1561287775.2,286047009.4,N
1561287795.0,286047010.5,N
1561287795.9,286047010.5,N
1561287815.7,286047011.9,N
1561287835.6,286047008.4,N
1561287855.4,286047005.2,N
1561287875.2,286047003.1,N
1561287895.1,286047004.7,N
1561287896.0,286047004.7,N
1561287915.8,286047005.0,N
1561287935.6,286047008.2,N
1561287955.5,286047010.9,Y
1561287975.3,286047005.4,P
1561287995.1,286047007.3,P
1561288015.9,286047006.3,P
1561288035.7,286047008.5,Y
1561288055.5,286047003.1,P
1561288075.4,286047003.5,N
1561288095.2,286047005.6,P
1561288115.0,286047005.9,Y
1561288115.9,286047005.9,P
1561288135.8,286046998.4,N
1561288155.6,286047000.0,N
1561288175.4,286047004.7,N
1561288195.3,286047012.4,Y
1561288215.1,286047001.5,P
1561288235.9,286046998.9,N
1561288255.7,286046993.5,P
1561288275.5,286046991.7,N
1561288295.3,286046991.3,N
1561288315.2,286046991.9,N
1561288335.0,286046991.3,N
1561288335.9,286046991.3,N
1561288355.7,286046990.5,N
1561288375.6,286046988.6,N
1561288395.4,286046988.5,N
1561288415.2,286046991.6,N
1561288435.1,286046991.0,N
1561288436.0,286046991.0,N
1561288455.8,286046993.1,N
1561288475.6,286046991.8,N
1561288495.5,286046993.5,N
1561288515.3,286046996.4,N
1561288535.1,286046996.1,N
1561288555.9,286046995.7,N
1561288575.7,286046994.5,N
1561288595.5,286046993.9,N
1561288615.4,286046994.6,N
1561288635.2,286046995.2,N
1561288655.0,286046993.9,N
1561288655.9,286046993.9,N
1561288675.8,286046994.1,N
1561288695.6,286046991.7,N
1561288715.4,286046992.5,N
1561288735.3,286046994.2,N
1561288755.1,286046995.7,N
1561288775.8,286046995.0,N
1561288795.7,286046997.1,N
1561288815.5,286047000.6,N
1561288835.3,286047002.2,N
1561288855.2,286047011.9,Y
1561288875.0,286047010.4,P
1561288875.9,286047010.4,N
1561288895.7,286047010.6,N
1561288915.6,286047007.9,N
1561288935.4,286047011.9,N
1561288955.2,286047010.1,N
1561288975.1,286047012.1,N
1561288976.0,286047012.1,N
1561288995.8,286047008.1,N
1561289015.6,286047006.7,N
1561289035.5,286047004.5,N
1561289055.3,286047004.7,N
1561289075.1,286047004.7,N
1561289095.9,286047007.2,N
1561289115.7,286047008.9,N
1561289135.5,286047008.5,N
1561289155.4,286047008.2,N
1561289175.2,286047012.0,N
1561289195.0,286047012.6,Y
1561289195.9,286047012.6,P
1561289215.8,286047007.0,P
1561289235.6,286047008.6,P
1561289255.4,286047010.7,Y
1561289275.3,286047003.8,P
1561289295.1,286047005.2,N
1561289315.8,286047004.6,N
1561289335.7,286047005.8,N
1561289355.5,286047003.6,N
1561289375.3,286047002.0,N
1561289395.2,286047004.0,N
1561289415.0,286047001.6,N
1561289415.9,286047001.6,N
1561289435.7,286047000.1,N
1561289455.6,286046998.7,N
1561289475.4,286046999.2,N
1561289495.2,286046998.6,N
1561289515.1,286046998.4,N
1561289516.0,286046998.4,N
1561289535.8,286046999.5,N
1561289555.6,286046996.7,N
1561289575.5,286046995.3,N
1561289595.3,286046996.2,N
1561289615.1,286046991.7,N
1561289635.9,286046994.8,N
1561289655.7,286046993.0,N
1561289675.5,286046992.6,N
1561289695.4,286046994.5,N
1561289715.2,286046995.1,N
1561289735.0,286046995.0,N
1561289735.9,286046995.0,N
1561289755.8,286046996.6,N
1561289775.6,286046998.2,N
1561289795.4,286047002.0,N
1561289815.3,286047004.0,N
1561289835.1,286047005.2,N
1561289836.0,286047005.2,N
1561289855.8,286047004.6,N
1561289875.7,286047008.4,N
1561289895.5,286047007.6,N
1561289915.3,286047007.6,N
1561289935.2,286047004.9,N
1561289955.9,286047004.6,N
1561289975.7,286047004.5,N
1561289995.6,286047006.8,N
1561290015.4,286047004.0,N
1561290035.2,286047002.8,N
1561290055.1,286047001.8,N
1561290056.0,286047001.8,N
1561290075.8,286047000.3,N
1561290095.6,286047000.5,N
1561290115.5,286046997.8,N
1561290135.3,286046993.9,N
1561290155.1,286046992.3,N
1561290175.9,286046995.2,N
1561290195.7,286046996.3,N
1561290215.5,286046993.1,N
1561290235.4,286046991.4,N
1561290255.2,286046990.1,N
1561290275.0,286046989.3,N
1561290275.9,286046989.3,N
1561290295.8,286046986.3,N
1561290315.6,286046985.9,N
1561290335.4,286046984.1,N
1561290355.3,286046981.1,N
1561290375.1,286046980.1,N
1561290376.0,286046980.1,N
1561290395.8,286046976.8,N
1561290415.7,286046972.5,N
1561290435.5,286046975.0,N
1561290455.3,286046974.1,N
1561290475.2,286046977.6,N
1561290495.9,286046982.0,N
1561290515.7,286046982.6,N
1561290535.6,286046986.7,N
1561290555.4,286046985.9,N
1561290575.2,286046990.0,N
1561290595.1,286046989.4,N
1561290596.0,286046989.4,N
1561290615.8,286046995.3,N
1561290635.6,286046993.8,N
1561290655.5,286046988.5,N
1561290675.3,286046985.8,N
1561290695.1,286046986.4,N
1561290715.9,286046985.2,N
1561290735.7,286046985.0,N
1561290755.5,286046986.3,N
1561290775.4,286046987.5,N
1561290795.2,286046988.6,N
1561290815.0,286046992.4,N
1561290815.9,286046992.4,N
1561290835.8,286046996.1,N
1561290855.6,286046991.8,N
1561290875.4,286046992.6,N
1561290895.2,286046992.4,N
1561290915.1,286046991.9,N
1561290916.0,286046991.9,N
1561290935.8,286046994.2,N
1561290955.7,286046992.7,N
1561290975.5,286046992.9,N
1561290995.3,286046990.5,N
1561291015.1,286046993.1,N
1561291035.9,286046993.1,N
1561291055.7,286046989.4,Y
1561291075.6,286046998.9,P
1561291095.4,286047000.7,N
1561291115.2,286046997.4,N
1561291135.0,286046997.0,N
1561291136.0,286046997.0,N
1561291155.8,286047001.2,N
1561291175.6,286047000.9,N
1561291195.4,286047001.3,N
